EA1AML-1 Vega de Espinareda ES current weather conditions

sailwx.info

Wind from 093

Air temperature 12.8° C
Dewpoint 8.1° C

Last reported at 2017-Jul-23 12:52 UTC.
Time now 2017-Jul-24 02:50 UTC

Location: N 42°46' W 006°37'.
View on Google Maps.

See reports from other nearby stations

  
Tides and Currents Weather Stations Pressure Air Temp Water Temp Dewpoint Dewpoint Depression Visibility Wind Speed Wind Dir Waves Ship Positions
date/time (UTC)wind fromknots sea level pressurealtimeterstation pressurevisibilityair tempwater tempwave heightnotes
2017-Jul-23 12:52 093 12.8
2017-Jul-23 12:43 093 12.8
2017-Jul-23 12:34 093 12.8
2017-Jul-23 12:25 093 12.8
2017-Jul-23 12:16 093 12.8
2017-Jul-23 12:07 093 12.8
2017-Jul-23 11:58 093 12.8
2017-Jul-23 11:49 093 12.8
2017-Jul-23 11:40 093 12.8
2017-Jul-23 11:31 093 12.8
2017-Jul-23 11:22 093 12.8
2017-Jul-23 11:13 093 12.8
2017-Jul-23 11:04 093 12.8
2017-Jul-23 10:55 093 12.8
2017-Jul-23 10:46 093 12.8
2017-Jul-23 10:37 093 12.8
2017-Jul-23 10:28 093 12.8
2017-Jul-23 10:19 093 12.8
2017-Jul-23 10:10 093 12.8
2017-Jul-23 10:01 093 12.8
2017-Jul-23 09:52 093 12.8
2017-Jul-23 09:43 093 12.8
2017-Jul-23 09:34 093 12.8
2017-Jul-23 09:25 093 12.8
2017-Jul-23 09:16 093 12.8
2017-Jul-23 09:07 093 12.8
2017-Jul-23 08:58 093 12.8
2017-Jul-23 08:49 093 12.8
2017-Jul-23 08:40 093 12.8
2017-Jul-23 08:31 093 12.8
2017-Jul-23 08:22 093 12.8
2017-Jul-23 08:13 093 12.8
2017-Jul-23 08:04 093 12.8
2017-Jul-23 07:55 093 12.8
2017-Jul-23 07:46 093 12.8
2017-Jul-23 07:37 093 12.8
2017-Jul-23 07:28 093 12.8
2017-Jul-23 07:19 093 12.2
2017-Jul-23 07:10 101 12.2
2017-Jul-23 07:01 088 11.7
2017-Jul-23 06:52 081 0 gusting 1 11.1
2017-Jul-23 06:43 085 11.7
2017-Jul-23 06:34 090 12.2
2017-Jul-23 06:25 090 12.2
2017-Jul-23 06:16 090 12.2
2017-Jul-23 06:07 090 11.7
2017-Jul-23 05:58 090 11.1
2017-Jul-23 05:49 090 10.6
2017-Jul-23 05:40 090 10.6
2017-Jul-23 05:31 090 11.1
2017-Jul-23 05:22 090 11.1
2017-Jul-23 05:13 090 11.1
2017-Jul-23 05:04 090 11.1
2017-Jul-23 04:55 078 11.1
2017-Jul-23 04:46 063 11.7
2017-Jul-23 04:37 090 11.7
2017-Jul-23 04:28 090 11.7
2017-Jul-23 04:19 090 0 gusting 1 11.7
2017-Jul-23 04:10 090 11.7
2017-Jul-23 04:01 090 11.7
2017-Jul-23 03:52 090 11.7
2017-Jul-23 03:43 090 11.7
2017-Jul-23 03:34 090 11.7
2017-Jul-23 03:25 075 11.7
2017-Jul-23 03:16 089 12.2
2017-Jul-23 03:07 090 12.8
2017-Jul-23 02:58 101 12.8
2017-Jul-23 02:49 126 13.3
2017-Jul-23 02:40 090 12.8
2017-Jul-23 02:31 106 12.8
2017-Jul-23 02:22 106 13.3
2017-Jul-23 02:13 12.8
2017-Jul-23 02:04 090 12.8
2017-Jul-23 01:55 090 13.3
2017-Jul-23 01:46 090 13.9
2017-Jul-23 01:37 090 13.9
2017-Jul-23 01:28 13.9
2017-Jul-23 01:19 135 14.4
2017-Jul-23 01:10 144 14.4
2017-Jul-23 01:01 252 15.0
2017-Jul-23 00:52 225 15.0
2017-Jul-23 00:43 193 15.0
2017-Jul-23 00:34 102 15.0
2017-Jul-23 00:25 090 15.0
2017-Jul-23 00:16 090 15.0
2017-Jul-23 00:07 090 15.0
2017-Jul-22 23:58 135 15.6
2017-Jul-22 23:49 157 16.7
2017-Jul-22 23:40 16.7
2017-Jul-22 23:31 190 16.7
2017-Jul-22 23:22 237 16.7
2017-Jul-22 23:13 228 0 gusting 2 16.7
2017-Jul-22 23:04 226 0 gusting 2 16.7
2017-Jul-22 22:55 16.7
2017-Jul-22 22:46 202 17.2
2017-Jul-22 22:37 208 17.2
2017-Jul-22 22:28 244 17.2
2017-Jul-22 22:19 243 17.2
2017-Jul-22 22:10 140 17.2
2017-Jul-22 22:01 150 17.8
2017-Jul-22 21:52 096 18.3
2017-Jul-22 21:43 189 18.3
2017-Jul-22 21:34 216 0 gusting 3 18.3
2017-Jul-22 21:25 228 1 gusting 3 18.3
2017-Jul-22 21:16 259 0 gusting 6 18.3
2017-Jul-22 21:07 255 3 gusting 6 18.9
2017-Jul-22 20:58 242 0 gusting 2 19.4
2017-Jul-22 20:49 239 1 gusting 2 19.4
2017-Jul-22 20:40 287 19.4
2017-Jul-22 20:31 202 19.4
2017-Jul-22 20:22 234 19.4
2017-Jul-22 20:13 239 20.0
2017-Jul-22 20:04 282 20.0
2017-Jul-22 19:55 254 2 gusting 10 20.0
2017-Jul-22 19:46 250 5 gusting 10 20.0
2017-Jul-22 19:37 256 3 gusting 9 20.6
2017-Jul-22 19:28 156 0 gusting 6 20.6
2017-Jul-22 19:19 203 1 gusting 7 21.1
2017-Jul-22 19:10 190 0 gusting 6 21.1
2017-Jul-22 19:01 278 3 gusting 10 21.7
2017-Jul-22 18:52 292 6 gusting 10 21.7
2017-Jul-22 18:43 245 4 gusting 11 22.2
2017-Jul-22 18:34 100 3 gusting 8 23.3
2017-Jul-22 18:25 348 2 gusting 8 24.4
2017-Jul-22 18:16 287 3 gusting 9 25.6
2017-Jul-22 18:07 246 0 gusting 8 25.6
2017-Jul-22 17:58 153 2 gusting 8 26.1
2017-Jul-22 17:49 263 1 gusting 9 26.1
2017-Jul-22 17:40 098 3 gusting 8 26.7
2017-Jul-22 17:31 085 1 gusting 6 27.2
2017-Jul-22 17:22 229 1 gusting 6 27.2
2017-Jul-22 17:13 190 1 gusting 6 26.7
2017-Jul-22 17:04 133 1 gusting 6 27.2
2017-Jul-22 16:55 248 1 gusting 8 27.2
2017-Jul-22 16:46 155 1 gusting 5 27.2
2017-Jul-22 16:37 087 0 gusting 6 26.7
2017-Jul-22 16:28 184 0 gusting 7 26.7
2017-Jul-22 16:19 182 1 gusting 4 26.7
2017-Jul-22 16:10 083 0 gusting 6 26.7
2017-Jul-22 16:01 161 1 gusting 6 26.7
2017-Jul-22 15:52 092 0 gusting 5 26.1
2017-Jul-22 15:43 023 1 gusting 6 26.1
2017-Jul-22 15:34 354 2 gusting 6 25.6
2017-Jul-22 15:25 215 3 gusting 7 25.6
2017-Jul-22 15:16 225 2 gusting 9 25.6
2017-Jul-22 15:07 209 0 gusting 6 25.6
2017-Jul-22 14:58 076 3 gusting 5 25.6
2017-Jul-22 14:49 136 1 gusting 4 25.0
2017-Jul-22 14:40 059 0 gusting 6 24.4
2017-Jul-22 14:31 092 2 gusting 6 24.4
2017-Jul-22 14:22 007 1 gusting 4 24.4
2017-Jul-22 14:13 102 2 gusting 5 24.4
2017-Jul-22 14:04 140 1 gusting 5 24.4
2017-Jul-22 13:55 099 1 gusting 6 23.9
2017-Jul-22 13:46 073 1 gusting 6 23.3
2017-Jul-22 13:37 075 0 gusting 5 23.3
2017-Jul-22 13:28 027 3 gusting 5 23.3
2017-Jul-22 13:19 091 1 gusting 6 23.3
2017-Jul-22 13:10 096 1 gusting 6 23.3
2017-Jul-22 13:01 114 1 gusting 6 22.8
2017-Jul-22 12:47 196 0 gusting 5 22.8
2017-Jul-22 12:38 088 2 gusting 5 22.8
2017-Jul-22 12:29 143 0 gusting 6 22.8
2017-Jul-22 12:20 125 0 gusting 4 22.2
2017-Jul-22 12:11 116 0 gusting 4 22.8
2017-Jul-22 12:02 090 1 gusting 3 22.8
2017-Jul-22 11:53 129 22.8
2017-Jul-22 11:44 100 1 gusting 4 23.3
2017-Jul-22 11:35 083 0 gusting 6 22.8
2017-Jul-22 11:26 087 0 gusting 4 22.2
2017-Jul-22 11:17 109 0 gusting 5 22.2
2017-Jul-22 11:08 074 1 gusting 3 22.2
2017-Jul-22 10:59 076 0 gusting 3 21.7
2017-Jul-22 10:50 130 0 gusting 4 21.1
2017-Jul-22 10:41 144 21.1
2017-Jul-22 10:32 234 1 gusting 4 20.6
2017-Jul-22 10:23 206 1 gusting 3 21.1
2017-Jul-22 10:14 171 20.6
2017-Jul-22 10:05 095 0 gusting 2 20.6
2017-Jul-22 09:56 133 20.6
2017-Jul-22 09:47 094 20.0
2017-Jul-22 09:38 103 19.4
2017-Jul-22 09:29 095 19.4
2017-Jul-22 09:20 119 0 gusting 1 18.9
2017-Jul-22 09:11 209 0 gusting 1 18.3
2017-Jul-22 09:02 221 17.8
2017-Jul-22 08:53 242 0 gusting 4 17.8
2017-Jul-22 08:44 182 17.8
2017-Jul-22 08:35 131 17.2
2017-Jul-22 08:26 110 16.7
2017-Jul-22 08:17 103 16.1
2017-Jul-22 08:08 109 16.1
2017-Jul-22 07:59 101 16.1
2017-Jul-22 07:50 095 16.1
2017-Jul-22 07:41 099 16.1
2017-Jul-22 07:32 206 16.1
2017-Jul-22 07:23 076 16.1
2017-Jul-22 07:14 150 15.6
2017-Jul-22 07:05 219 15.6
2017-Jul-22 06:56 217 15.6
2017-Jul-22 06:47 090 15.0
2017-Jul-22 06:38 088 15.0
2017-Jul-22 06:29 099 15.0
2017-Jul-22 06:20 116 15.0
2017-Jul-22 06:11 101 15.0
2017-Jul-22 06:02 090 14.4
2017-Jul-22 05:53 094 14.4
2017-Jul-22 05:44 090 13.9
2017-Jul-22 05:35 090 13.9
2017-Jul-22 05:26 092 13.9
2017-Jul-22 05:17 090 13.9
2017-Jul-22 05:08 090 13.9
2017-Jul-22 04:59 088 0 gusting 1 13.9
2017-Jul-22 04:50 090 13.3
2017-Jul-22 04:41 090 13.3
2017-Jul-22 04:32 13.3
2017-Jul-22 04:23 090 13.3
2017-Jul-22 04:14 088 13.3
2017-Jul-22 04:05 082 13.9
2017-Jul-22 03:56 107 13.9
2017-Jul-22 03:47 090 13.9
2017-Jul-22 03:38 095 13.9
2017-Jul-22 03:29 13.9
2017-Jul-22 03:20 090 13.9
2017-Jul-22 03:11 090 13.9
2017-Jul-22 03:02 090 13.9
2017-Jul-22 02:53 208 13.9
2017-Jul-22 02:44 229 1 gusting 2 14.4
2017-Jul-22 02:35 103 14.4
2017-Jul-22 02:26 100 0 gusting 1 14.4
2017-Jul-22 02:17 222 14.4
2017-Jul-22 02:08 094 14.4